Location: Buckhorn Peak
(37.6641°N, 120.1241°W)
Time: 00:58:39
(UTC+00:00)

BlueWalker 3 - Pass Details

Date: 23 December 2025
Orbit: 452 x 463 km, 53.2° (Epoch: 13 January)

Event Time Altitude Azimuth Distance (km) Brightness Sun altitude
Exits shadow 13:54:00 31° 281° (W) 815 2.4 -15.1°
Maximum altitude 13:55:03 40° 323° (NW) 681 2.2 -14.9°
Drops below altitude 10° 13:58:27 10° 35° (NE) 1,594 4.7 -14.3°
Sets 14:00:41 0° 42° (NE) 2,472 5.8 -13.9°
